[[{"header":{"parameterUnit":"m.s-1","parameterCategory":1,"la1":30.2991,"la2":30.254,"lo1":-89.0895,"lo2":-89.0444,"dy":0.0017,"dx":0.0017,"nx":28,"ny":28,"refTime":"2023-10-10T03:00:00:Z","depth":0,"parameterNumber":2,"parameterNumberName":"U-component_of_WINDS"},"data":[0,0,0,0,0,0,0,0,0,0,0,0,0,0,0,0,0,0,0,0,0,0,0,0,0,0,0,0,0,0,0,0,0,0,0,0,0,0,0,0,0,0,0,0,0,0,0,0,0,0,0,0,0,0,0,0,0,0,1.5571,1.5572,0,1.5636,1.5637,1.5637,1.5616,1.5614,1.5613,1.5611,1.5677,1.568,1.5683,0,0,0,0,0,0,0,0,0,0,0,0,0,1.5427,1.5429,1.5571,1.5572,1.5573,1.5636,1.5637,1.5638,1.5616,1.5614,1.5612,1.5611,1.5676,1.5679,1.5683,0,0,0,0,0,0,0,0,0,0,0,0,0,1.549,1.543,1.5571,1.5569,1.557,1.5636,1.5637,1.5638,1.5616,1.5614,1.5612,1.561,1.5674,1.5679,1.5683,1.5754,0,0,1.5697,1.5699,0,0,0,0,0,0,0,0,1.5487,1.5495,1.5569,1.557,1.557,1.5616,1.561,1.5677,1.5617,1.5599,1.5611,1.5609,1.5658,1.5664,1.5681,1.5757,1.576,1.5698,1.5701,1.5703,1.5704,0,0,0,0,0,0,0,1.5482,1.5493,1.5597,1.557,1.5571,1.5565,1.5572,1.5622,1.5639,1.56,1.5599,1.5607,1.5658,1.5676,1.5682,1.5761,1.5698,1.5702,1.5705,1.5706,1.5896,1.5899,0,0,0,0,0,0,1.5478,1.5489,1.5595,1.5599,1.5522,1.5569,1.5577,1.5603,1.5639,1.5642,1.5608,1.5605,1.5669,1.5677,1.5684,1.5767,1.5703,1.5707,1.5709,1.5894,1.5897,1.5899,0,0,0,0,0,0,1.5475,1.5487,1.5592,1.5543,1.5556,1.5574,1.5604,1.5606,1.5624,1.5645,1.5648,1.5624,1.5668,1.5678,1.5736,1.5769,1.5709,1.5713,1.5891,1.5895,1.5898,1.5934,0,0,0,0,0,0,1.547,1.5486,1.5514,1.5544,1.5559,1.5644,1.5606,1.5608,1.5632,1.5628,1.566,1.5664,1.5667,1.573,1.5741,1.5774,1.5717,1.5888,1.5893,1.5897,1.593,1.5939,1.5946,0,0,0,0,0,1.5465,1.5521,1.5515,1.5528,1.5594,1.5646,1.5654,1.5657,1.5635,1.5662,1.5675,1.5663,1.5764,1.5736,1.5748,1.5783,1.5886,1.5892,1.5897,1.5927,1.5937,1.5946,0,0,0,0,0,0,1.5494,1.5525,1.5519,1.5586,1.5614,1.5642,1.5676,1.5668,1.5702,1.5697,1.57,1.5707,1.5767,1.5782,1.5749,1.5853,1.5822,1.583,1.584,1.585,1.5858,1.5852,1.572,0,0,0,0,0,1.5508,1.5548,1.5574,1.5631,1.5645,1.5658,1.5681,1.5681,1.5709,1.572,1.5738,1.5765,1.5803,1.5828,1.5864,1.5933,1.5939,1.5964,1.5971,1.5978,1.5984,1.6019,1.603,1.5916,1.5916,1.5916,0,0,1.5538,1.556,1.5585,1.5637,1.5658,1.5698,1.5668,1.5712,1.5742,1.5727,1.5783,1.5797,1.5828,1.5891,1.592,1.5905,1.6017,1.5984,1.5989,1.5992,1.6025,1.6036,1.6046,1.592,1.5919,1.5919,0,0,1.5611,1.5634,1.5682,1.5704,1.5736,1.5745,1.5757,1.5787,1.5795,1.5852,1.5841,1.5876,1.5942,1.5963,1.5983,1.6065,1.6054,1.6077,1.6116,1.6151,1.616,1.6168,1.6194,1.6204,1.6083,1.6084,1.6084,0,1.5644,1.5705,1.5709,1.5754,1.5776,1.5765,1.5814,1.5835,1.5877,1.5892,1.5875,1.5957,1.5977,1.6044,1.6064,1.6081,1.6093,1.6072,1.6158,1.6166,1.6174,1.6199,1.621,1.6086,1.6086,1.6085,1.6085,0,1.5742,1.5784,1.582,1.5861,1.5887,1.5934,1.5944,1.5971,1.5969,1.5979,1.6036,1.606,1.61,1.6117,1.6115,1.6184,1.6173,1.6158,1.6126,1.6187,1.6211,1.6221,1.6089,1.6088,1.6088,1.6087,0,0,1.5834,1.5876,1.5889,1.5906,1.5941,1.5974,1.602,1.6059,1.6081,1.6111,1.6148,1.6204,1.619,1.6212,1.6213,1.6244,1.6304,1.6224,1.6225,1.6236,1.6378,1.6388,1.6399,1.6298,1.63,1.6302,1.6375,0,1.5908,1.5989,1.5993,1.6066,1.6104,1.6095,1.6134,1.616,1.6171,1.6204,1.6216,1.6255,1.6234,1.6247,1.6277,1.6291,1.6332,1.6286,1.6331,1.6333,1.6321,1.6412,1.6422,1.649,1.6384,1.6386,1.6387,0,1.6006,1.6038,1.6114,1.6142,1.6159,1.6194,1.623,1.6263,1.6291,1.6296,1.6321,1.6318,1.6364,1.6333,1.6396,1.6364,1.6383,1.6393,1.6395,1.6397,1.6362,1.6414,1.6512,1.6521,1.6403,1.6401,1.64,0,1.6061,1.6125,1.6178,1.6194,1.6229,1.6253,1.6269,1.6295,1.6318,1.635,1.6364,1.6401,1.642,1.6448,1.6455,1.6432,1.6516,1.6486,1.6521,1.652,1.6537,1.6535,1.6636,1.6554,1.6554,1.6554,1.6553,0,1.6142,1.6189,1.6203,1.6236,1.6287,1.6292,1.6343,1.6357,1.638,1.6414,1.641,1.6442,1.645,1.6483,1.6489,1.6538,1.6548,1.6553,1.6553,1.6552,1.6551,1.6562,1.6556,1.6556,1.6556,1.6555,1.6555,0,1.6212,1.6224,1.6281,1.631,1.6318,1.6354,1.6378,1.6409,1.642,1.6463,1.6474,1.649,1.6529,1.6539,1.6586,1.659,1.6648,1.6645,1.6638,1.6637,1.667,1.6665,1.6779,1.6794,1.6705,1.6705,1.6706,0,1.6262,1.6297,1.633,1.6352,1.6369,1.6406,1.6429,1.6436,1.646,1.6494,1.6521,1.6559,1.659,1.6653,1.6669,1.6705,1.6701,1.6739,1.6706,1.6703,1.6698,1.6695,1.6698,1.6744,1.6745,1.6746,1.6746,0,1.6348,1.6352,1.6385,1.6421,1.6449,1.6478,1.6505,1.6524,1.6534,1.6561,1.6601,1.6626,1.6673,1.6711,1.6747,1.6762,1.6755,1.6757,1.6766,1.6763,1.6757,1.6758,1.6652,1.6753,1.6753,1.6752,1.6752,1.6752,1.6407,1.6437,1.6464,1.6502,1.6523,1.6549,1.6578,1.6593,1.6626,1.6665,1.6668,1.671,1.6737,1.6784,1.6802,1.6835,1.6824,1.6838,1.6841,1.6844,1.6845,1.6754,1.6842,1.6842,1.6842,1.6842,1.6842,0,1.649,1.6507,1.6542,1.658,1.6609,1.6601,1.6631,1.6655,1.6693,1.6719,1.6749,1.6795,1.6831,1.685,1.6886,1.6909,1.6907,1.6918,1.6915,1.6918,1.6855,1.6842,1.6919,1.6919,1.6919,1.6919,1.6919,1.6919,1.6537,1.6587,1.6594,1.6654,1.6671,1.6713,1.673,1.6753,1.6773,1.6824,1.6854,1.6866,1.6889,1.6926,1.6959,1.6964,1.6976,1.6988,1.6991,1.6931,1.6923,1.6915,1.6903,1.6992,1.6992,1.7051,1.7052,1.7052]},{"header":{"parameterUnit":"m.s-1","parameterCategory":1,"la1":30.2991,"la2":30.254,"lo1":-89.0895,"lo2":-89.0444,"dy":0.0017,"dx":0.0017,"nx":28,"ny":28,"refTime":"2023-10-10T03:00:00:Z","depth":0,"parameterNumber":3,"parameterNumberName":"V-component_of_WINDS"},"data":[0,0,0,0,0,0,0,0,0,0,0,0,0,0,0,0,0,0,0,0,0,0,0,0,0,0,0,0,0,0,0,0,0,0,0,0,0,0,0,0,0,0,0,0,0,0,0,0,0,0,0,0,0,0,0,0,0,0,1.0755,1.0755,0,1.0738,1.0738,1.0738,1.0707,1.0707,1.0706,1.0706,1.0689,1.0689,1.0689,0,0,0,0,0,0,0,0,0,0,0,0,0,1.0762,1.0762,1.0755,1.0755,1.0755,1.0738,1.0738,1.0738,1.0708,1.0707,1.0706,1.0706,1.0689,1.0689,1.0689,0,0,0,0,0,0,0,0,0,0,0,0,0,1.0753,1.0762,1.0755,1.0738,1.0736,1.0738,1.0738,1.0738,1.0708,1.0707,1.0706,1.0705,1.0689,1.0689,1.0689,1.0707,0,0,1.0689,1.0689,0,0,0,0,0,0,0,0,1.0754,1.0753,1.0741,1.0739,1.0737,1.0724,1.0734,1.0727,1.0708,1.0719,1.0706,1.0705,1.0701,1.07,1.0699,1.0706,1.0705,1.0689,1.0689,1.0689,1.0689,0,0,0,0,0,0,0,1.0754,1.0754,1.0749,1.074,1.0738,1.0731,1.0729,1.0733,1.0715,1.0718,1.0715,1.0714,1.07,1.0699,1.0698,1.0705,1.0689,1.0689,1.0689,1.0689,1.0726,1.0727,0,0,0,0,0,0,1.0757,1.0754,1.0749,1.0748,1.0743,1.0731,1.0729,1.0729,1.0715,1.0712,1.0714,1.0712,1.0699,1.0698,1.0698,1.0718,1.0689,1.0689,1.0689,1.0725,1.0726,1.0727,0,0,0,0,0,0,1.0758,1.0757,1.075,1.0751,1.0749,1.0732,1.0733,1.0729,1.0728,1.0712,1.0709,1.0717,1.0698,1.0697,1.0705,1.0717,1.0689,1.069,1.0724,1.0725,1.0726,1.0758,0,0,0,0,0,0,1.0758,1.0758,1.0764,1.0751,1.0749,1.0757,1.0733,1.073,1.0728,1.0725,1.0714,1.0711,1.0698,1.0705,1.0705,1.0716,1.069,1.0723,1.0724,1.0726,1.0756,1.076,1.0764,0,0,0,0,0,1.0758,1.0774,1.0765,1.0764,1.0757,1.0758,1.0757,1.0742,1.0729,1.0736,1.0726,1.0711,1.0715,1.0706,1.0706,1.0717,1.0722,1.0724,1.0726,1.0754,1.076,1.0764,0,0,0,0,0,0,1.079,1.0772,1.0762,1.0774,1.0768,1.0753,1.0761,1.0748,1.0745,1.0743,1.0724,1.0721,1.0731,1.0725,1.0715,1.0734,1.0716,1.0718,1.0738,1.0743,1.0747,1.0748,1.069,0,0,0,0,0,1.0798,1.08,1.0785,1.0797,1.0794,1.0778,1.0778,1.0767,1.076,1.0757,1.0747,1.0741,1.0741,1.0741,1.074,1.0755,1.0752,1.0763,1.0767,1.077,1.0772,1.0779,1.0784,1.0734,1.0734,1.0734,0,0,1.0815,1.0806,1.0809,1.0803,1.0797,1.0799,1.0776,1.078,1.0782,1.0758,1.0764,1.0757,1.0748,1.0759,1.0764,1.0754,1.0786,1.0773,1.0776,1.0776,1.0782,1.0787,1.0791,1.0735,1.0735,1.0734,0,0,1.0848,1.0841,1.085,1.0845,1.0836,1.0825,1.0827,1.0814,1.0809,1.0815,1.0796,1.0798,1.0798,1.0793,1.079,1.0821,1.0807,1.0821,1.0842,1.0849,1.0853,1.0857,1.0868,1.0872,1.0823,1.0823,1.0823,0,1.0871,1.0874,1.0857,1.0862,1.086,1.0837,1.0846,1.0842,1.0833,1.0832,1.0822,1.0821,1.0814,1.0823,1.0831,1.0829,1.0831,1.0822,1.0854,1.0857,1.086,1.087,1.0875,1.0825,1.0824,1.0824,1.0824,0,1.0902,1.0905,1.0913,1.0905,1.0904,1.0911,1.0895,1.0895,1.0884,1.0874,1.088,1.0871,1.0867,1.0869,1.0858,1.0876,1.0871,1.0858,1.084,1.0867,1.0876,1.088,1.0827,1.0827,1.0826,1.0826,0,0,1.0955,1.0937,1.094,1.0936,1.0924,1.0926,1.0932,1.0928,1.0929,1.0924,1.0928,1.0929,1.0916,1.0913,1.0901,1.0907,1.0932,1.0893,1.0893,1.0901,1.0952,1.0962,1.0967,1.0922,1.0923,1.0923,1.0952,0,1.0985,1.0994,1.0979,1.0991,1.0993,1.0972,1.0977,1.097,1.0961,1.0961,1.0951,1.0952,1.0935,1.0933,1.0938,1.0928,1.0942,1.0925,1.0926,1.0927,1.0929,1.0971,1.0982,1.101,1.0956,1.0956,1.0957,0,1.1022,1.1018,1.1031,1.1018,1.1019,1.1024,1.1019,1.1019,1.1011,1.1004,1.1001,1.0986,1.0991,1.0973,1.0979,1.0968,1.0968,1.0962,1.0963,1.0963,1.0944,1.0973,1.1019,1.1023,1.0962,1.0962,1.0961,0,1.1059,1.1057,1.1065,1.1062,1.1047,1.1051,1.1045,1.1036,1.1035,1.1031,1.103,1.1026,1.1024,1.1022,1.1007,1.0995,1.1015,1.0996,1.1009,1.1009,1.1014,1.1014,1.1061,1.1013,1.1013,1.1013,1.1013,0,1.1095,1.1104,1.1081,1.1086,1.1095,1.1077,1.1086,1.1078,1.107,1.1072,1.1053,1.1056,1.1036,1.1037,1.1025,1.1032,1.1031,1.1025,1.1022,1.1027,1.1028,1.1027,1.1025,1.1014,1.1014,1.1014,1.1014,0,1.1139,1.1124,1.113,1.1116,1.1112,1.1119,1.1107,1.111,1.11,1.1103,1.1103,1.1086,1.1086,1.107,1.1067,1.1059,1.1071,1.1064,1.1073,1.1071,1.1085,1.1084,1.1134,1.1139,1.1088,1.1088,1.1089,0,1.1163,1.1169,1.1155,1.1155,1.115,1.115,1.1149,1.1131,1.113,1.1121,1.1126,1.1124,1.1121,1.1121,1.1109,1.1106,1.1099,1.1116,1.1099,1.1103,1.11,1.11,1.11,1.112,1.1121,1.1122,1.1122,0,1.1207,1.1199,1.1198,1.1194,1.1192,1.1188,1.1183,1.1184,1.1165,1.1165,1.1164,1.1162,1.1158,1.1156,1.1151,1.1145,1.113,1.1128,1.1131,1.1136,1.1142,1.1139,1.1084,1.1127,1.1126,1.1126,1.1126,1.1126,1.1241,1.1245,1.1236,1.1235,1.1229,1.1225,1.1227,1.1217,1.1216,1.1211,1.1201,1.1202,1.1193,1.1184,1.1179,1.1179,1.1171,1.1175,1.1176,1.1177,1.118,1.1141,1.1178,1.1178,1.1178,1.1178,1.1178,0,1.1284,1.1277,1.1276,1.127,1.1269,1.1255,1.1248,1.1249,1.125,1.1243,1.124,1.1239,1.1237,1.1225,1.1221,1.1224,1.1217,1.1224,1.1224,1.1222,1.1188,1.1186,1.1229,1.1229,1.1229,1.1229,1.1229,1.1229,1.1307,1.1313,1.1305,1.1308,1.1301,1.1301,1.1299,1.1295,1.1289,1.1289,1.1287,1.1279,1.1269,1.1265,1.1262,1.1259,1.1258,1.1267,1.1261,1.123,1.1225,1.122,1.1218,1.1267,1.1267,1.1295,1.1296,1.1296]}]]